Location: *
(35.8942°N, 23.3025°E)
Time: 23:24:54
(UTC+00:00)

Cosmos 1328 Rocket - Pass Details

Date: 21 September 2021
Orbit: 601 x 627 km, 82.5° (Epoch: 22 October)

Event Time Altitude Azimuth Distance (km) Brightness Sun altitude
Exits shadow 02:02:04 56° 102° (ESE) 731 4.1 -26.8°
Maximum altitude 02:02:12 56° 94° (E) 729 4.1 -26.8°
Drops below altitude 10° 02:06:27 10° 16° (NNE) 1,963 6.6 -26.0°
Sets 02:08:41 0° 12° (NNE) 2,867 7.4 -25.6°
